RYR94EL EGBB-LEMI

Flight info

Callsign RYR94EL
Flight time 2h 41m
Altitude 37000
Route ADMEX Y321 CPT UN859 SOPIL DCT BALAN DCT LMG DCT PIMQO DCT AGN DCT ANETO DCT POSSY DCT XIMPE DCT RIMES N860 VLC L34 ALT
Aircraft B738/M-SDE2E3FGHIRWXY/LB1

Departure

Time 2026-04-20 13:04
Airport Birmingham Airport (EGBB)

Arrival

Time 2026-04-20 15:46
Airport Region of Murcia International Airport (LEMI)
Time Latitude Longitude Altitude Speed Heading
2026-04-20 12:21 52.45356 -1.73632 321 ft 0 kts 146°
2026-04-20 12:46 52.45367 -1.73645 322 ft 4 kts 149°
2026-04-20 12:47 52.45391 -1.73665 319 ft 4 kts 158°
2026-04-20 12:47 52.45408 -1.73675 319 ft 4 kts 169°
2026-04-20 12:47 52.45433 -1.73676 319 ft 4 kts 207°
2026-04-20 12:47 52.45445 -1.73659 321 ft 0 kts 236°
2026-04-20 12:51 52.45445 -1.73660 321 ft 1 kts 236°
2026-04-20 12:51 52.45435 -1.73684 319 ft 4 kts 236°
2026-04-20 12:51 52.45407 -1.73751 322 ft 11 kts 236°
2026-04-20 12:51 52.45361 -1.73860 322 ft 12 kts 233°
2026-04-20 12:52 52.45316 -1.73965 322 ft 11 kts 224°
2026-04-20 12:52 52.45258 -1.73952 322 ft 9 kts 141°
2026-04-20 12:52 52.45208 -1.73893 322 ft 9 kts 147°
2026-04-20 12:52 52.45159 -1.73839 322 ft 8 kts 146°
2026-04-20 12:53 52.45112 -1.73787 322 ft 8 kts 148°
2026-04-20 12:53 52.45055 -1.73755 322 ft 9 kts 161°
2026-04-20 12:53 52.44995 -1.73693 322 ft 11 kts 148°
2026-04-20 12:53 52.44921 -1.73639 322 ft 12 kts 181°
2026-04-20 12:54 52.44842 -1.73678 321 ft 12 kts 196°
2026-04-20 12:54 52.44765 -1.73715 323 ft 11 kts 197°
2026-04-20 12:54 52.44690 -1.73710 322 ft 11 kts 151°
2026-04-20 12:54 52.44630 -1.73636 322 ft 11 kts 144°
2026-04-20 12:55 52.44569 -1.73568 322 ft 10 kts 147°
2026-04-20 12:55 52.44509 -1.73502 323 ft 10 kts 145°
2026-04-20 12:55 52.44452 -1.73438 323 ft 10 kts 145°
2026-04-20 12:55 52.44389 -1.73407 322 ft 10 kts 197°
2026-04-20 12:56 52.44368 -1.73435 322 ft 0 kts 232°
2026-04-20 12:57 52.44365 -1.73444 322 ft 3 kts 236°
2026-04-20 12:57 52.44335 -1.73516 324 ft 12 kts 240°
2026-04-20 12:58 52.44369 -1.73675 322 ft 22 kts 329°
2026-04-20 12:58 52.44513 -1.73836 327 ft 29 kts 324°
2026-04-20 12:58 52.44703 -1.74044 324 ft 36 kts 326°
2026-04-20 12:58 52.44930 -1.74301 324 ft 43 kts 326°
2026-04-20 12:59 52.45190 -1.74584 324 ft 47 kts 326°
2026-04-20 12:59 52.45376 -1.74768 324 ft 18 kts
2026-04-20 12:59 52.45465 -1.74615 322 ft 22 kts 34°
2026-04-20 12:59 52.45596 -1.74707 319 ft 23 kts 326°
2026-04-20 13:00 52.45741 -1.74869 309 ft 27 kts 326°
2026-04-20 13:00 52.45894 -1.75039 305 ft 26 kts 326°
2026-04-20 13:00 52.46044 -1.75206 304 ft 29 kts 327°
2026-04-20 13:00 52.46236 -1.75418 304 ft 37 kts 326°
2026-04-20 13:01 52.46452 -1.75659 302 ft 37 kts 327°
2026-04-20 13:01 52.46631 -1.75871 309 ft 15 kts 297°
2026-04-20 13:01 52.46603 -1.75992 306 ft 11 kts 236°
2026-04-20 13:01 52.46558 -1.76087 304 ft 11 kts 202°
2026-04-20 13:02 52.46524 -1.76065 307 ft 3 kts 146°
2026-04-20 13:02 52.46523 -1.76064 307 ft 0 kts 146°
2026-04-20 13:03 52.46493 -1.76031 307 ft 17 kts 146°
2026-04-20 13:04 52.46189 -1.75694 308 ft 88 kts 146°
2026-04-20 13:04 52.45525 -1.74955 319 ft 144 kts 146°
2026-04-20 13:04 52.44591 -1.73950 627 ft 166 kts 145°
2026-04-20 13:04 52.43643 -1.72934 1526 ft 165 kts 142°
2026-04-20 13:05 52.42689 -1.71843 2280 ft 169 kts 141°
2026-04-20 13:05 52.41649 -1.70658 2705 ft 198 kts 142°
2026-04-20 13:05 52.40357 -1.69775 3288 ft 206 kts 166°
2026-04-20 13:05 52.38919 -1.69281 3801 ft 217 kts 162°
2026-04-20 13:06 52.37454 -1.68496 4488 ft 220 kts 152°
2026-04-20 13:06 52.36103 -1.67384 5404 ft 218 kts 149°
2026-04-20 13:06 52.34754 -1.66201 5879 ft 225 kts 151°
2026-04-20 13:06 52.33219 -1.65127 6124 ft 254 kts 155°
2026-04-20 13:07 52.31529 -1.64044 6689 ft 266 kts 156°
2026-04-20 13:07 52.29804 -1.62936 7365 ft 273 kts 156°
2026-04-20 13:07 52.28021 -1.61777 8120 ft 278 kts 157°
2026-04-20 13:07 52.26204 -1.60587 8795 ft 286 kts 156°
2026-04-20 13:08 52.24333 -1.59378 9584 ft 289 kts 160°
2026-04-20 13:08 52.22408 -1.58365 10326 ft 295 kts 163°
2026-04-20 13:08 52.20432 -1.57397 10982 ft 300 kts 163°
2026-04-20 13:08 52.18425 -1.56409 11736 ft 303 kts 163°
2026-04-20 13:09 52.16372 -1.55391 12198 ft 318 kts 163°
2026-04-20 13:09 52.14179 -1.54294 12373 ft 342 kts 163°
2026-04-20 13:09 52.11841 -1.53120 12705 ft 357 kts 163°
2026-04-20 13:09 52.09468 -1.51925 13283 ft 365 kts 164°
2026-04-20 13:10 52.07021 -1.50694 14011 ft 370 kts 164°
2026-04-20 13:10 52.04556 -1.49454 14778 ft 372 kts 164°
2026-04-20 13:10 52.02061 -1.48201 15319 ft 380 kts 165°
2026-04-20 13:10 51.99505 -1.46921 15908 ft 387 kts 165°
2026-04-20 13:11 51.96931 -1.45632 16698 ft 388 kts 165°
2026-04-20 13:11 51.94339 -1.44335 17399 ft 392 kts 165°
2026-04-20 13:11 51.91702 -1.43018 18008 ft 398 kts 165°
2026-04-20 13:11 51.89039 -1.41690 18626 ft 403 kts 165°
2026-04-20 13:12 51.86336 -1.40343 19191 ft 408 kts 166°
2026-04-20 13:12 51.83611 -1.38988 19745 ft 412 kts 166°
2026-04-20 13:12 51.80848 -1.37615 20286 ft 417 kts 166°
2026-04-20 13:12 51.78047 -1.36229 20693 ft 425 kts 167°
2026-04-20 13:13 51.75195 -1.34822 21144 ft 432 kts 167°
2026-04-20 13:13 51.72307 -1.33390 21752 ft 434 kts 168°
2026-04-20 13:13 51.69443 -1.31973 22326 ft 437 kts 168°
2026-04-20 13:13 51.66521 -1.30526 22836 ft 441 kts 168°
2026-04-20 13:14 51.63569 -1.29067 23325 ft 446 kts 168°
2026-04-20 13:14 51.60589 -1.27598 23829 ft 450 kts 169°
2026-04-20 13:14 51.57580 -1.26117 24253 ft 453 kts 169°
2026-04-20 13:14 51.54559 -1.24631 24650 ft 456 kts 169°
2026-04-20 13:15 51.51511 -1.23136 25088 ft 459 kts 169°
2026-04-20 13:15 51.48447 -1.21601 25501 ft 464 kts 167°
2026-04-20 13:15 51.45440 -1.19534 25894 ft 473 kts 160°
2026-04-20 13:15 51.42485 -1.17175 26293 ft 476 kts 159°
2026-04-20 13:16 51.39500 -1.14838 26671 ft 478 kts 160°
2026-04-20 13:16 51.36480 -1.12573 27029 ft 481 kts 161°
2026-04-20 13:16 51.33470 -1.10376 27394 ft 483 kts 162°
2026-04-20 13:16 51.30364 -1.08122 27829 ft 483 kts 161°
2026-04-20 13:17 51.27336 -1.05919 28234 ft 485 kts 161°
2026-04-20 13:17 51.24260 -1.03680 28550 ft 488 kts 162°
2026-04-20 13:17 51.21151 -1.01425 28863 ft 492 kts 162°
2026-04-20 13:17 51.18031 -0.99159 29183 ft 494 kts 162°
2026-04-20 13:18 51.14889 -0.96877 29524 ft 496 kts 162°
2026-04-20 13:18 51.11737 -0.94596 29896 ft 498 kts 163°
2026-04-20 13:18 51.08561 -0.92300 30092 ft 503 kts 162°
2026-04-20 13:18 51.05369 -0.89991 30341 ft 506 kts 162°
2026-04-20 13:19 51.02155 -0.87668 30620 ft 507 kts 162°
2026-04-20 13:19 50.98945 -0.85351 30941 ft 507 kts 162°
2026-04-20 13:19 50.95730 -0.83035 31316 ft 506 kts 162°
2026-04-20 13:19 50.92530 -0.80735 31683 ft 504 kts 161°
2026-04-20 13:20 50.89330 -0.78441 32023 ft 504 kts 161°
2026-04-20 13:20 50.86138 -0.76145 32343 ft 504 kts 160°
2026-04-20 13:20 50.83045 -0.73498 32715 ft 507 kts 153°
2026-04-20 13:20 50.80066 -0.70496 33075 ft 507 kts 151°
2026-04-20 13:21 50.77120 -0.67420 33378 ft 508 kts 150°
2026-04-20 13:21 50.74179 -0.64324 33671 ft 508 kts 150°
2026-04-20 13:21 50.71264 -0.61277 33990 ft 507 kts 150°
2026-04-20 13:21 50.68317 -0.58234 34321 ft 506 kts 150°
2026-04-20 13:22 50.65369 -0.55225 34612 ft 504 kts 150°
2026-04-20 13:22 50.62426 -0.52244 34883 ft 502 kts 151°
2026-04-20 13:22 50.59479 -0.49273 35226 ft 500 kts 151°
2026-04-20 13:22 50.56552 -0.46328 35533 ft 498 kts 151°
2026-04-20 13:23 50.53635 -0.43398 35800 ft 497 kts 151°
2026-04-20 13:23 50.50723 -0.40476 36064 ft 496 kts 151°
2026-04-20 13:23 50.47816 -0.37561 36349 ft 495 kts 151°
2026-04-20 13:23 50.44926 -0.34665 36661 ft 492 kts 151°
2026-04-20 13:24 50.42042 -0.31780 36963 ft 490 kts 151°
2026-04-20 13:24 50.39173 -0.28913 37262 ft 488 kts 151°
2026-04-20 13:24 50.36338 -0.26086 37234 ft 491 kts 151°
2026-04-20 13:25 50.30560 -0.20337 37239 ft 491 kts 151°
2026-04-20 13:25 50.24831 -0.14648 37252 ft 485 kts 151°
2026-04-20 13:26 50.19137 -0.09021 37228 ft 483 kts 152°
2026-04-20 13:26 50.13472 -0.03421 37240 ft 481 kts 151°
2026-04-20 13:27 50.07537 0.01142 37249 ft 470 kts 168°
2026-04-20 13:27 50.01215 0.03583 37243 ft 468 kts 172°
2026-04-20 13:28 49.94868 0.05960 37224 ft 470 kts 171°
2026-04-20 13:28 49.88502 0.08424 37233 ft 472 kts 170°
2026-04-20 13:29 49.82173 0.10898 37224 ft 473 kts 171°
2026-04-20 13:29 49.75777 0.13393 37218 ft 474 kts 170°
2026-04-20 13:30 49.69368 0.15886 37210 ft 475 kts 170°
2026-04-20 13:30 49.62948 0.18434 37212 ft 476 kts 170°
2026-04-20 13:31 49.56540 0.21040 37211 ft 476 kts 169°
2026-04-20 13:31 49.50134 0.23650 37195 ft 475 kts 169°
2026-04-20 13:32 49.44820 0.25795 37205 ft 474 kts 169°
2026-04-20 13:32 49.37406 0.28773 37213 ft 473 kts 169°
2026-04-20 13:33 49.32079 0.30896 37207 ft 471 kts 170°
2026-04-20 13:33 49.25785 0.33487 37196 ft 471 kts 168°
2026-04-20 13:34 49.19480 0.36172 37178 ft 469 kts 168°
2026-04-20 13:34 49.13190 0.38825 37179 ft 469 kts 169°
2026-04-20 13:35 49.06888 0.41461 37150 ft 469 kts 169°
2026-04-20 13:35 49.00603 0.44070 37179 ft 468 kts 169°
2026-04-20 13:36 48.94306 0.46698 37172 ft 469 kts 169°
2026-04-20 13:36 48.88037 0.49301 37211 ft 472 kts 169°
2026-04-20 13:36 48.84865 0.50615 37415 ft 472 kts 169°
2026-04-20 13:37 48.81705 0.51923 37729 ft 470 kts 169°
2026-04-20 13:37 48.78552 0.53225 38002 ft 468 kts 169°
2026-04-20 13:37 48.75399 0.54487 38206 ft 468 kts 170°
2026-04-20 13:37 48.72242 0.55717 38388 ft 468 kts 170°
2026-04-20 13:38 48.69083 0.56937 38551 ft 468 kts 170°
2026-04-20 13:38 48.65930 0.58158 38759 ft 468 kts 170°
2026-04-20 13:38 48.62782 0.59381 38926 ft 467 kts 170°
2026-04-20 13:38 48.59630 0.60608 39066 ft 467 kts 169°
2026-04-20 13:39 48.56484 0.61834 39136 ft 467 kts 169°
2026-04-20 13:39 48.50154 0.64305 39146 ft 470 kts 169°
2026-04-20 13:40 48.43890 0.66855 39143 ft 469 kts 169°
2026-04-20 13:40 48.37594 0.69429 39133 ft 468 kts 169°
2026-04-20 13:41 48.31297 0.71980 39139 ft 467 kts 169°
2026-04-20 13:41 48.25024 0.74510 39135 ft 466 kts 169°
2026-04-20 13:42 48.18796 0.76977 39121 ft 466 kts 169°
2026-04-20 13:42 48.09394 0.80663 39125 ft 465 kts 169°
2026-04-20 13:43 48.03123 0.83120 39118 ft 465 kts 169°
2026-04-20 13:43 47.96860 0.85570 39119 ft 465 kts 170°
2026-04-20 13:44 47.90603 0.88012 39117 ft 465 kts 170°
2026-04-20 13:44 47.84338 0.90451 39109 ft 465 kts 170°
2026-04-20 13:45 47.78109 0.92865 39083 ft 466 kts 170°
2026-04-20 13:45 47.71819 0.95289 39096 ft 466 kts 170°
2026-04-20 13:46 47.65543 0.97713 39099 ft 466 kts 170°
2026-04-20 13:46 47.59244 1.00127 39096 ft 467 kts 170°
2026-04-20 13:47 47.52949 1.02553 39080 ft 468 kts 170°
2026-04-20 13:47 47.46638 1.04972 39090 ft 468 kts 170°
2026-04-20 13:48 47.40320 1.06523 39073 ft 459 kts 185°
2026-04-20 13:48 47.33945 1.06313 39073 ft 458 kts 187°
2026-04-20 13:49 47.27559 1.06072 39075 ft 459 kts 186°
2026-04-20 13:49 47.21165 1.05901 39069 ft 460 kts 186°
2026-04-20 13:50 47.14752 1.05764 39064 ft 460 kts 186°
2026-04-20 13:50 47.08350 1.05628 39064 ft 460 kts 186°
2026-04-20 13:51 47.01947 1.05482 39057 ft 460 kts 186°
2026-04-20 13:51 46.95552 1.05233 39041 ft 459 kts 187°
2026-04-20 13:52 46.89183 1.04932 39054 ft 457 kts 187°
2026-04-20 13:52 46.82858 1.04644 39054 ft 457 kts 187°
2026-04-20 13:53 46.76512 1.04369 39043 ft 456 kts 187°
2026-04-20 13:53 46.70170 1.04097 39038 ft 455 kts 187°
2026-04-20 13:54 46.63838 1.03825 39042 ft 455 kts 187°
2026-04-20 13:54 46.57512 1.03553 39040 ft 455 kts 187°
2026-04-20 13:55 46.51216 1.03285 39029 ft 454 kts 187°
2026-04-20 13:55 46.44892 1.03162 39031 ft 455 kts 186°
2026-04-20 13:56 46.38557 1.03139 39035 ft 455 kts 185°
2026-04-20 13:56 46.32215 1.03102 39019 ft 455 kts 186°
2026-04-20 13:57 46.25876 1.03044 39024 ft 456 kts 186°
2026-04-20 13:57 46.19523 1.02978 39021 ft 456 kts 186°
2026-04-20 13:58 46.13163 1.02914 39007 ft 457 kts 186°
2026-04-20 13:58 46.06840 1.02851 39000 ft 457 kts 186°
2026-04-20 13:59 46.00466 1.02787 39002 ft 457 kts 186°
2026-04-20 13:59 45.94106 1.02724 38985 ft 457 kts 186°
2026-04-20 14:00 45.87747 1.02661 38986 ft 456 kts 186°
2026-04-20 14:00 45.81429 1.02662 38990 ft 458 kts 182°
2026-04-20 14:01 45.75072 1.04060 38980 ft 463 kts 174°
2026-04-20 14:01 45.68747 1.05819 38977 ft 462 kts 174°
2026-04-20 14:02 45.62426 1.07509 38979 ft 462 kts 175°
2026-04-20 14:02 45.56100 1.09135 38959 ft 461 kts 175°
2026-04-20 14:03 45.49833 1.10726 38969 ft 460 kts 175°
2026-04-20 14:03 45.43519 1.12326 38963 ft 460 kts 175°
2026-04-20 14:04 45.37215 1.13923 38959 ft 460 kts 175°
2026-04-20 14:04 45.30906 1.15519 38964 ft 460 kts 175°
2026-04-20 14:05 45.24593 1.17112 38958 ft 460 kts 175°
2026-04-20 14:05 45.18287 1.18671 38939 ft 459 kts 179°
2026-04-20 14:06 45.12066 1.18490 38951 ft 444 kts 196°
2026-04-20 14:06 45.06001 1.16867 38968 ft 444 kts 197°
2026-04-20 14:07 44.99917 1.15229 38953 ft 445 kts 196°
2026-04-20 14:07 44.93811 1.13634 38949 ft 446 kts 196°
2026-04-20 14:08 44.87692 1.12069 38959 ft 446 kts 196°
2026-04-20 14:08 44.81614 1.10527 38952 ft 447 kts 195°
2026-04-20 14:09 44.75473 1.08969 38951 ft 447 kts 196°
2026-04-20 14:09 44.69351 1.07418 38949 ft 447 kts 195°
2026-04-20 14:10 44.63263 1.05878 38943 ft 447 kts 195°
2026-04-20 14:10 44.57143 1.04333 38946 ft 446 kts 195°
2026-04-20 14:11 44.51021 1.02792 38945 ft 446 kts 195°
2026-04-20 14:11 44.44922 1.01259 38951 ft 445 kts 195°
2026-04-20 14:12 44.38821 0.99728 38940 ft 445 kts 195°
2026-04-20 14:12 44.32732 0.98204 38947 ft 444 kts 195°
2026-04-20 14:13 44.26658 0.96682 38948 ft 443 kts 195°
2026-04-20 14:13 44.20576 0.95169 38934 ft 443 kts 195°
2026-04-20 14:14 44.14552 0.93673 38937 ft 442 kts 195°
2026-04-20 14:14 44.08495 0.92170 38944 ft 441 kts 195°
2026-04-20 14:15 44.02443 0.90670 38921 ft 441 kts 195°
2026-04-20 14:15 43.96393 0.89174 38935 ft 441 kts 195°
2026-04-20 14:16 43.90355 0.87684 38948 ft 441 kts 195°
2026-04-20 14:16 43.84321 0.86128 38936 ft 441 kts 196°
2026-04-20 14:17 43.78291 0.84502 38936 ft 441 kts 196°
2026-04-20 14:17 43.72262 0.82874 38950 ft 441 kts 196°
2026-04-20 14:18 43.66266 0.81266 38946 ft 442 kts 196°
2026-04-20 14:18 43.60217 0.79653 38934 ft 442 kts 195°
2026-04-20 14:19 43.54169 0.78044 38944 ft 442 kts 195°
2026-04-20 14:19 43.49141 0.76709 38954 ft 442 kts 195°
2026-04-20 14:20 43.42116 0.74847 38941 ft 442 kts 195°
2026-04-20 14:20 43.37050 0.73507 38950 ft 442 kts 195°
2026-04-20 14:21 43.31043 0.71921 38953 ft 442 kts 195°
2026-04-20 14:21 43.24998 0.70329 38962 ft 442 kts 195°
2026-04-20 14:22 43.18956 0.68740 38953 ft 441 kts 195°
2026-04-20 14:22 43.12932 0.67159 38966 ft 441 kts 195°
2026-04-20 14:23 43.06903 0.65580 38977 ft 440 kts 195°
2026-04-20 14:23 43.00888 0.63999 38960 ft 440 kts 195°
2026-04-20 14:24 42.94892 0.62441 38988 ft 438 kts 195°
2026-04-20 14:24 42.88941 0.60895 38993 ft 437 kts 195°
2026-04-20 14:25 42.82975 0.59337 39044 ft 436 kts 195°
2026-04-20 14:25 42.76962 0.57785 39003 ft 440 kts 195°
2026-04-20 14:26 42.70948 0.56220 39006 ft 439 kts 197°
2026-04-20 14:26 42.65297 0.53399 39021 ft 430 kts 210°
2026-04-20 14:27 42.59938 0.49886 38989 ft 429 kts 210°
2026-04-20 14:27 42.54557 0.46387 39010 ft 430 kts 209°
2026-04-20 14:28 42.49142 0.42915 39004 ft 430 kts 209°
2026-04-20 14:28 42.43716 0.39458 38986 ft 432 kts 209°
2026-04-20 14:29 42.38252 0.35991 38988 ft 432 kts 209°
2026-04-20 14:29 42.32829 0.32556 38968 ft 434 kts 209°
2026-04-20 14:30 42.27345 0.29085 38956 ft 435 kts 209°
2026-04-20 14:30 42.21839 0.25607 38960 ft 437 kts 209°
2026-04-20 14:31 42.16337 0.22138 38934 ft 437 kts 209°
2026-04-20 14:31 42.10821 0.18667 38926 ft 436 kts 208°
2026-04-20 14:32 42.05180 0.15645 38922 ft 440 kts 198°
2026-04-20 14:32 41.99077 0.14509 38930 ft 444 kts 190°
2026-04-20 14:33 41.92935 0.13670 38925 ft 443 kts 190°
2026-04-20 14:33 41.86848 0.12804 38923 ft 442 kts 190°
2026-04-20 14:34 41.80736 0.11899 38925 ft 441 kts 191°
2026-04-20 14:34 41.74634 0.10986 38921 ft 440 kts 191°
2026-04-20 14:35 41.68554 0.10078 38916 ft 439 kts 191°
2026-04-20 14:35 41.62474 0.09170 38922 ft 439 kts 191°
2026-04-20 14:36 41.56396 0.08268 38912 ft 438 kts 191°
2026-04-20 14:36 41.50375 0.07376 38919 ft 438 kts 191°
2026-04-20 14:37 41.44319 0.06475 38918 ft 438 kts 191°
2026-04-20 14:37 41.38258 0.05581 38916 ft 438 kts 191°
2026-04-20 14:38 41.32198 0.04690 38916 ft 437 kts 191°
2026-04-20 14:38 41.26144 0.03799 38923 ft 437 kts 191°
2026-04-20 14:39 41.20095 0.02910 38924 ft 437 kts 191°
2026-04-20 14:39 41.14093 0.02029 38926 ft 436 kts 191°
2026-04-20 14:40 41.08059 0.01146 38931 ft 436 kts 191°
2026-04-20 14:40 41.02036 0.00263 38930 ft 436 kts 191°
2026-04-20 14:41 40.95999 -0.00609 38940 ft 435 kts 190°
2026-04-20 14:41 40.89989 -0.01475 38950 ft 434 kts 190°
2026-04-20 14:42 40.84014 -0.02338 38939 ft 433 kts 190°
2026-04-20 14:42 40.78032 -0.03202 38956 ft 432 kts 190°
2026-04-20 14:43 40.72047 -0.04065 38964 ft 432 kts 190°
2026-04-20 14:43 40.66065 -0.04926 38959 ft 432 kts 190°
2026-04-20 14:44 40.60082 -0.05786 38968 ft 432 kts 190°
2026-04-20 14:44 40.54199 -0.06929 38960 ft 427 kts 199°
2026-04-20 14:45 40.48519 -0.09184 38974 ft 426 kts 201°
2026-04-20 14:45 40.42859 -0.11492 38972 ft 426 kts 200°
2026-04-20 14:46 40.37179 -0.13751 38969 ft 426 kts 200°
2026-04-20 14:46 40.31489 -0.15988 38965 ft 427 kts 200°
2026-04-20 14:47 40.25798 -0.18221 38960 ft 426 kts 200°
2026-04-20 14:48 40.17295 -0.21579 38967 ft 426 kts 200°
2026-04-20 14:48 40.11612 -0.23826 38964 ft 427 kts 200°
2026-04-20 14:49 40.05916 -0.26072 38965 ft 427 kts 200°
2026-04-20 14:49 40.00210 -0.28316 38950 ft 428 kts 200°
2026-04-20 14:50 39.94532 -0.30512 38955 ft 428 kts 200°
2026-04-20 14:50 39.88817 -0.32707 38952 ft 428 kts 200°
2026-04-20 14:51 39.83105 -0.34926 38943 ft 429 kts 200°
2026-04-20 14:51 39.77392 -0.37152 38937 ft 428 kts 200°
2026-04-20 14:52 39.71677 -0.39374 38936 ft 428 kts 200°
2026-04-20 14:52 39.65983 -0.41582 38946 ft 427 kts 200°
2026-04-20 14:53 39.60289 -0.43786 38935 ft 427 kts 200°
2026-04-20 14:53 39.54600 -0.45985 38933 ft 426 kts 200°
2026-04-20 14:54 39.48906 -0.48106 38933 ft 427 kts 195°
2026-04-20 14:54 39.42963 -0.48836 38939 ft 431 kts 186°
2026-04-20 14:55 39.36979 -0.49197 38924 ft 430 kts 186°
2026-04-20 14:55 39.31001 -0.49585 38922 ft 430 kts 186°
2026-04-20 14:56 39.25060 -0.50002 38918 ft 430 kts 187°
2026-04-20 14:56 39.19079 -0.50433 38919 ft 430 kts 187°
2026-04-20 14:57 39.13095 -0.50865 38918 ft 431 kts 187°
2026-04-20 14:57 39.07101 -0.51297 38931 ft 431 kts 187°
2026-04-20 14:58 39.01105 -0.51727 38946 ft 432 kts 187°
2026-04-20 14:58 38.95104 -0.52157 38948 ft 432 kts 187°
2026-04-20 14:59 38.89098 -0.52587 38962 ft 432 kts 187°
2026-04-20 14:59 38.83085 -0.53016 38967 ft 432 kts 186°
2026-04-20 15:00 38.77118 -0.53441 38970 ft 433 kts 186°
2026-04-20 15:00 38.71095 -0.53870 38969 ft 433 kts 186°
2026-04-20 15:01 38.65075 -0.54298 38951 ft 433 kts 186°
2026-04-20 15:01 38.59085 -0.54721 38939 ft 423 kts 186°
2026-04-20 15:01 38.56198 -0.54925 38943 ft 408 kts 186°
2026-04-20 15:02 38.53403 -0.55122 38922 ft 396 kts 186°
2026-04-20 15:02 38.50673 -0.55313 38680 ft 390 kts 186°
2026-04-20 15:02 38.47978 -0.55503 37962 ft 389 kts 187°
2026-04-20 15:02 38.45226 -0.55701 36533 ft 403 kts 187°
2026-04-20 15:03 38.42400 -0.55907 35064 ft 420 kts 187°
2026-04-20 15:03 38.39431 -0.56120 33848 ft 431 kts 187°
2026-04-20 15:03 38.36450 -0.56326 33194 ft 431 kts 186°
2026-04-20 15:03 38.33441 -0.56535 32450 ft 433 kts 186°
2026-04-20 15:04 38.30441 -0.56744 31901 ft 430 kts 186°
2026-04-20 15:04 38.27455 -0.56952 31394 ft 427 kts 186°
2026-04-20 15:04 38.24478 -0.57025 30898 ft 426 kts 182°
2026-04-20 15:04 38.21526 -0.56916 30416 ft 424 kts 180°
2026-04-20 15:05 38.18585 -0.56737 29908 ft 422 kts 180°
2026-04-20 15:05 38.15662 -0.56546 29344 ft 419 kts 180°
2026-04-20 15:05 38.12762 -0.56366 28835 ft 415 kts 180°
2026-04-20 15:05 38.09894 -0.56201 28321 ft 411 kts 180°
2026-04-20 15:06 38.07042 -0.56050 27825 ft 408 kts 180°
2026-04-20 15:06 38.05162 -0.55956 27479 ft 406 kts 180°
2026-04-20 15:06 38.01436 -0.55774 26857 ft 405 kts 180°
2026-04-20 15:06 37.98574 -0.55639 26345 ft 415 kts 180°
2026-04-20 15:07 37.95673 -0.55502 25804 ft 418 kts 180°
2026-04-20 15:07 37.93751 -0.55411 25451 ft 416 kts 180°
2026-04-20 15:07 37.90867 -0.55272 24942 ft 412 kts 180°
2026-04-20 15:07 37.88015 -0.55135 24441 ft 409 kts 179°
2026-04-20 15:08 37.85176 -0.54998 23925 ft 406 kts 179°
2026-04-20 15:08 37.82367 -0.54864 23388 ft 404 kts 179°
2026-04-20 15:08 37.79558 -0.54730 22827 ft 401 kts 180°
2026-04-20 15:08 37.76785 -0.54599 22307 ft 397 kts 179°
2026-04-20 15:09 37.74041 -0.54467 21807 ft 393 kts 180°
2026-04-20 15:09 37.71317 -0.54336 21318 ft 389 kts 180°
2026-04-20 15:09 37.68627 -0.54207 20836 ft 385 kts 180°
2026-04-20 15:09 37.65964 -0.54081 20364 ft 381 kts 180°
2026-04-20 15:10 37.63324 -0.53955 19893 ft 378 kts 180°
2026-04-20 15:10 37.60702 -0.53831 19430 ft 375 kts 180°
2026-04-20 15:10 37.58117 -0.53708 18969 ft 372 kts 180°
2026-04-20 15:10 37.55535 -0.53585 18516 ft 369 kts 180°
2026-04-20 15:11 37.52979 -0.53464 18034 ft 366 kts 180°
2026-04-20 15:11 37.50437 -0.53343 17523 ft 364 kts 180°
2026-04-20 15:11 37.47977 -0.53570 17000 ft 357 kts 199°
2026-04-20 15:11 37.45882 -0.55106 16583 ft 347 kts 225°
2026-04-20 15:12 37.44448 -0.57508 16157 ft 342 kts 240°
2026-04-20 15:12 37.43362 -0.60157 15717 ft 339 kts 246°
2026-04-20 15:12 37.42466 -0.62885 15274 ft 337 kts 249°
2026-04-20 15:12 37.41692 -0.65656 14848 ft 335 kts 252°
2026-04-20 15:13 37.41026 -0.68451 14426 ft 333 kts 255°
2026-04-20 15:13 37.40476 -0.71272 14001 ft 331 kts 258°
2026-04-20 15:13 37.40058 -0.74113 13561 ft 329 kts 261°
2026-04-20 15:13 37.39783 -0.76965 13103 ft 328 kts 265°
2026-04-20 15:14 37.39650 -0.79817 12664 ft 326 kts 268°
2026-04-20 15:14 37.39652 -0.82657 12225 ft 324 kts 271°
2026-04-20 15:14 37.39784 -0.85489 11745 ft 325 kts 275°
2026-04-20 15:14 37.40047 -0.88310 11304 ft 324 kts 278°
2026-04-20 15:15 37.40439 -0.91092 11027 ft 321 kts 281°
2026-04-20 15:15 37.40951 -0.93794 10975 ft 313 kts 284°
2026-04-20 15:15 37.41567 -0.96381 10960 ft 305 kts 288°
2026-04-20 15:15 37.42273 -0.98851 10843 ft 293 kts 291°
2026-04-20 15:16 37.43050 -1.01181 10256 ft 294 kts 294°
2026-04-20 15:16 37.43913 -1.03446 10159 ft 282 kts 296°
2026-04-20 15:16 37.44825 -1.05600 10012 ft 275 kts 299°
2026-04-20 15:16 37.45977 -1.07468 9782 ft 272 kts 322°
2026-04-20 15:17 37.47680 -1.08449 9481 ft 271 kts 349°
2026-04-20 15:17 37.49553 -1.08437 9206 ft 271 kts 11°
2026-04-20 15:17 37.51415 -1.07963 8648 ft 275 kts 356°
2026-04-20 15:17 37.53139 -1.08762 8389 ft 264 kts 317°
2026-04-20 15:18 37.54053 -1.10679 8403 ft 260 kts 280°
2026-04-20 15:18 37.53914 -1.12967 8011 ft 269 kts 245°
2026-04-20 15:18 37.52877 -1.14872 7735 ft 260 kts 236°
2026-04-20 15:18 37.52077 -1.16867 7438 ft 254 kts 256°
2026-04-20 15:19 37.52017 -1.19060 7203 ft 251 kts 281°
2026-04-20 15:19 37.52524 -1.21163 6965 ft 251 kts 293°
2026-04-20 15:19 37.53213 -1.23193 6705 ft 252 kts 294°
2026-04-20 15:19 37.53884 -1.25199 6444 ft 252 kts 294°
2026-04-20 15:20 37.54590 -1.27213 6167 ft 252 kts 296°
2026-04-20 15:20 37.55381 -1.29185 5895 ft 251 kts 299°
2026-04-20 15:20 37.56260 -1.31082 5640 ft 250 kts 303°
2026-04-20 15:20 37.57218 -1.32887 5411 ft 244 kts 307°
2026-04-20 15:21 37.58189 -1.34544 5280 ft 224 kts 309°
2026-04-20 15:21 37.59133 -1.35992 5170 ft 206 kts 313°
2026-04-20 15:21 37.60102 -1.37285 5089 ft 201 kts 322°
2026-04-20 15:21 37.61359 -1.37930 4973 ft 196 kts
2026-04-20 15:22 37.62570 -1.37301 4937 ft 193 kts 41°
2026-04-20 15:22 37.63600 -1.36190 4827 ft 197 kts 40°
2026-04-20 15:22 37.64625 -1.35035 4717 ft 198 kts 46°
2026-04-20 15:22 37.65548 -1.33753 4508 ft 196 kts 50°
2026-04-20 15:23 37.66430 -1.32462 4288 ft 194 kts 50°
2026-04-20 15:23 37.67307 -1.31186 4085 ft 189 kts 50°
2026-04-20 15:23 37.68148 -1.29965 3890 ft 181 kts 50°
2026-04-20 15:23 37.68947 -1.28806 3696 ft 175 kts 50°
2026-04-20 15:24 37.69745 -1.27649 3566 ft 176 kts 50°
2026-04-20 15:24 37.70552 -1.26478 3428 ft 179 kts 51°
2026-04-20 15:24 37.71369 -1.25294 3182 ft 179 kts 52°
2026-04-20 15:24 37.72174 -1.24125 2931 ft 173 kts 52°
2026-04-20 15:25 37.72956 -1.22992 2721 ft 167 kts 52°
2026-04-20 15:25 37.73704 -1.21918 2469 ft 162 kts 55°
2026-04-20 15:25 37.74420 -1.20872 2285 ft 157 kts 54°
2026-04-20 15:25 37.75143 -1.19824 2035 ft 156 kts 53°
2026-04-20 15:26 37.75854 -1.18792 1803 ft 157 kts 52°
2026-04-20 15:26 37.76573 -1.17746 1609 ft 158 kts 55°
2026-04-20 15:26 37.77251 -1.16665 1378 ft 158 kts 61°
2026-04-20 15:26 37.77931 -1.15596 1145 ft 151 kts 47°
2026-04-20 15:27 37.78641 -1.14656 924 ft 145 kts 50°
2026-04-20 15:27 37.79327 -1.13749 716 ft 146 kts 51°
2026-04-20 15:27 37.80024 -1.12834 695 ft 156 kts 44°
2026-04-20 15:27 37.80810 -1.11823 1475 ft 158 kts 48°
2026-04-20 15:28 37.81621 -1.10777 2226 ft 177 kts 47°
2026-04-20 15:28 37.82550 -1.09569 2700 ft 205 kts 47°
2026-04-20 15:28 37.83535 -1.08122 2961 ft 230 kts 52°
2026-04-20 15:28 37.84574 -1.06481 3284 ft 247 kts 52°
2026-04-20 15:29 37.85687 -1.04730 3481 ft 264 kts 52°
2026-04-20 15:29 37.86677 -1.02795 3547 ft 261 kts 72°
2026-04-20 15:29 37.86816 -1.00550 4078 ft 260 kts 100°
2026-04-20 15:29 37.86119 -0.98407 4097 ft 268 kts 127°
2026-04-20 15:30 37.84711 -0.96901 4108 ft 267 kts 149°
2026-04-20 15:30 37.83069 -0.95834 4096 ft 268 kts 155°
2026-04-20 15:30 37.81248 -0.95311 4089 ft 272 kts 181°
2026-04-20 15:30 37.79403 -0.95832 4111 ft 274 kts 198°
2026-04-20 15:31 37.77623 -0.96700 4100 ft 274 kts 200°
2026-04-20 15:31 37.75852 -0.97611 4104 ft 275 kts 201°
2026-04-20 15:31 37.74222 -0.98870 4087 ft 277 kts 225°
2026-04-20 15:31 37.73097 -1.00829 4104 ft 276 kts 238°
2026-04-20 15:32 37.72128 -1.02925 4089 ft 276 kts 240°
2026-04-20 15:32 37.71177 -1.05022 4097 ft 275 kts 238°
2026-04-20 15:32 37.70021 -1.06947 4099 ft 275 kts 230°
2026-04-20 15:32 37.68789 -1.08793 4101 ft 275 kts 229°
2026-04-20 15:33 37.67553 -1.10640 4096 ft 275 kts 229°
2026-04-20 15:33 37.66336 -1.12451 4097 ft 274 kts 229°
2026-04-20 15:33 37.65086 -1.14305 4100 ft 274 kts 229°
2026-04-20 15:33 37.63866 -1.16115 4353 ft 275 kts 229°
2026-04-20 15:34 37.62620 -1.17973 4480 ft 280 kts 229°
2026-04-20 15:34 37.61361 -1.19849 4479 ft 280 kts 229°
2026-04-20 15:34 37.60043 -1.21631 4499 ft 275 kts 218°
2026-04-20 15:34 37.58476 -1.22999 4494 ft 273 kts 212°
2026-04-20 15:35 37.56870 -1.24283 4480 ft 273 kts 211°
2026-04-20 15:35 37.55257 -1.25561 4492 ft 273 kts 211°
2026-04-20 15:35 37.53647 -1.26831 4490 ft 273 kts 211°
2026-04-20 15:35 37.52032 -1.28101 4477 ft 274 kts 211°
2026-04-20 15:36 37.50412 -1.29369 4485 ft 274 kts 211°
2026-04-20 15:36 37.48793 -1.30639 4482 ft 274 kts 211°
2026-04-20 15:36 37.47175 -1.31908 4480 ft 275 kts 211°
2026-04-20 15:36 37.45729 -1.33471 4475 ft 276 kts 234°
2026-04-20 15:37 37.44993 -1.35679 4479 ft 277 kts 262°
2026-04-20 15:37 37.45146 -1.38063 4486 ft 274 kts 289°
2026-04-20 15:37 37.45961 -1.40188 4489 ft 274 kts 300°
2026-04-20 15:37 37.46908 -1.42262 4477 ft 274 kts 301°
2026-04-20 15:38 37.47873 -1.44342 4490 ft 274 kts 301°
2026-04-20 15:38 37.48848 -1.46408 4490 ft 275 kts 305°
2026-04-20 15:38 37.50255 -1.47988 4472 ft 273 kts 339°
2026-04-20 15:38 37.52099 -1.48284 4472 ft 270 kts 13°
2026-04-20 15:39 37.53769 -1.47280 4497 ft 267 kts 36°
2026-04-20 15:39 37.55252 -1.45869 4467 ft 264 kts 39°
2026-04-20 15:39 37.56655 -1.44477 4484 ft 249 kts 39°
2026-04-20 15:39 37.57999 -1.43163 4461 ft 239 kts 39°
2026-04-20 15:40 37.59307 -1.41908 4471 ft 238 kts 38°
2026-04-20 15:40 37.60641 -1.40634 4492 ft 237 kts 38°
2026-04-20 15:40 37.61924 -1.39382 4469 ft 235 kts 44°
2026-04-20 15:40 37.63004 -1.37866 4496 ft 224 kts 51°
2026-04-20 15:41 37.63974 -1.36393 4473 ft 215 kts 51°
2026-04-20 15:41 37.64913 -1.34973 4474 ft 211 kts 51°
2026-04-20 15:41 37.65866 -1.33537 4311 ft 216 kts 51°
2026-04-20 15:41 37.66829 -1.32090 4217 ft 210 kts 51°
2026-04-20 15:42 37.67742 -1.30726 4027 ft 201 kts 50°
2026-04-20 15:42 37.68632 -1.29397 3822 ft 195 kts 51°
2026-04-20 15:42 37.69497 -1.28100 3590 ft 193 kts 51°
2026-04-20 15:42 37.70369 -1.26799 3390 ft 191 kts 51°
2026-04-20 15:43 37.71208 -1.25546 3180 ft 188 kts 52°
2026-04-20 15:43 37.72052 -1.24286 2971 ft 188 kts 51°
2026-04-20 15:43 37.72917 -1.23023 2715 ft 189 kts 54°
2026-04-20 15:43 37.73793 -1.21756 2433 ft 192 kts 53°
2026-04-20 15:44 37.74655 -1.20513 2161 ft 185 kts 51°
2026-04-20 15:44 37.75479 -1.19327 1945 ft 172 kts 51°
2026-04-20 15:44 37.76239 -1.18235 1681 ft 160 kts 52°
2026-04-20 15:44 37.76950 -1.17217 1461 ft 150 kts 56°
2026-04-20 15:45 37.77646 -1.16214 1256 ft 149 kts 55°
2026-04-20 15:45 37.78308 -1.15224 996 ft 145 kts 54°
2026-04-20 15:45 37.78966 -1.14231 802 ft 150 kts 55°
2026-04-20 15:45 37.79678 -1.13279 657 ft 143 kts 51°
2026-04-20 15:46 37.80262 -1.12537 644 ft 92 kts 43°
2026-04-20 15:46 37.80563 -1.12154 647 ft 31 kts 45°
2026-04-20 15:46 37.80673 -1.12011 643 ft 24 kts 43°
2026-04-20 15:46 37.80784 -1.11864 643 ft 23 kts 45°
2026-04-20 15:47 37.80893 -1.11725 643 ft 22 kts 45°
2026-04-20 15:47 37.80999 -1.11589 645 ft 21 kts 45°
2026-04-20 15:47 37.81100 -1.11456 648 ft 21 kts 46°
2026-04-20 15:47 37.81209 -1.11319 646 ft 23 kts 34°
2026-04-20 15:48 37.81337 -1.11392 649 ft 22 kts 299°
2026-04-20 15:48 37.81271 -1.11550 652 ft 21 kts 225°
2026-04-20 15:48 37.81168 -1.11682 649 ft 21 kts 225°
2026-04-20 15:48 37.81067 -1.11811 649 ft 20 kts 225°
2026-04-20 15:49 37.80971 -1.11935 645 ft 20 kts 226°
2026-04-20 15:49 37.80876 -1.12058 647 ft 19 kts 226°
2026-04-20 15:49 37.80783 -1.12178 646 ft 19 kts 225°
2026-04-20 15:49 37.80693 -1.12292 650 ft 18 kts 226°
2026-04-20 15:50 37.80607 -1.12404 649 ft 17 kts 225°
2026-04-20 15:50 37.80522 -1.12513 648 ft 17 kts 225°
2026-04-20 15:50 37.80440 -1.12618 648 ft 16 kts 225°
2026-04-20 15:50 37.80408 -1.12731 647 ft 16 kts 314°
2026-04-20 15:51 37.80457 -1.12841 646 ft 15 kts 250°
2026-04-20 15:51 37.80425 -1.12892 646 ft 0 kts 228°
2026-04-20 15:52 37.80424 -1.12892 646 ft 1 kts 228°
2026-04-20 15:52 37.80414 -1.12910 646 ft 4 kts 252°
2026-04-20 15:52 37.80436 -1.12948 647 ft 7 kts 316°
2026-04-20 15:53 37.80460 -1.12977 646 ft 0 kts 316°